This demonstration page uses our WeatherBlox Daily Observations layout. Learn more.

Left ArrowRight Arrow

Hourly Observations for August 21, 2022

Temp ( °F °C ) Dew Point ( °F °C ) Humidity (%) Winds ( mph kmh ) Pressure ( in mb ) Visibility ( mi km ) Precip ( " mm )
12:56 am 00:56 Clear 69 20.8 62 16.4 76 76 NNE 5 7 30.07 1018 10 16 0.00 0.00
1:56 am 01:56 Clear 68 19.8 61 16.2 80 80 N 6 9 30.07 1018 10 16 0.00 0.00
2:56 am 02:56 Clear 66 18.7 61 16.3 86 86 NW 3 6 30.09 1019 10 16 0.00 0.00
3:56 am 03:56 Clear 65 18.5 61 16.3 87 87 Calm 30.08 1019 10 16 0.00 0.00
4:56 am 04:56 Clear 65 18.1 61 16.2 89 89 NNW 6 9 30.08 1019 10 16 0.00 0.00
5:56 am 05:56 Clear 64 17.7 61 16 90 90 WNW 3 6 30.09 1019 10 16 0.00 0.00
6:56 am 06:56 Sunny 64 17.7 60 15.7 88 88 Calm 30.11 1020 10 16 0.00 0.00
7:56 am 07:56 Sunny 65 18.5 61 16.3 87 87 NW 3 6 30.12 1020 10 16 0.00 0.00
8:56 am 08:56 Sunny 71 21.5 63 17.1 76 76 ENE 3 6 30.13 1020 10 16 0.00 0.00
9:56 am 09:56 Sunny 74 23.3 63 17 68 68 Calm 30.14 1021 10 16 0.00 0.00
10:56 am 10:56 Sunny 75 24 62 16.5 63 63 N 6 9 30.14 1021 10 16 0.00 0.00
11:56 am 11:56 Sunny 78 25.6 61 15.9 55 55 N 8 13 30.13 1020 10 16 0.00 0.00
12:56 pm 12:56 Sunny 79 26.3 61 15.9 53 53 NNE 7 11 30.13 1020 10 16 0.00 0.00
1:56 pm 13:56 Mostly Sunny 80 26.8 63 17 55 55 N 8 13 30.12 1020 10 16 0.00 0.00
2:56 pm 14:56 Partly Cloudy 83 28.3 61 15.9 47 47 NE 6 9 30.11 1020 10 16 0.00 0.00
3:56 pm 15:56 Partly Cloudy 83 28.5 61 16.1 47 47 ESE 7 11 30.09 1019 10 16 0.00 0.00
4:56 pm 16:56 Mostly Sunny 80 26.9 61 15.9 51 51 E 5 7 30.08 1019 10 16 0.00 0.00
5:56 pm 17:56 Mostly Sunny 84 28.8 60 15.7 45 45 ENE 5 7 30.07 1018 10 16 0.00 0.00
6:56 pm 18:56 Mostly Sunny 82 27.6 60 15.6 48 48 E 5 7 30.07 1018 10 16 0.00 0.00
7:56 pm 19:56 Sunny 77 25.1 62 16.5 59 59 E 3 6 30.07 1018 10 16 0.00 0.00
8:56 pm 20:56 Clear 76 24.3 62 16.5 62 62 NE 5 7 30.08 1019 10 16 0.00 0.00
9:56 pm 21:56 Clear 74 23.1 62 16.4 66 66 NE 6 9 30.10 1019 10 16 0.00 0.00
10:56 pm 22:56 Clear 71 21.9 62 16.4 71 71 ENE 7 11 30.10 1019 10 16 0.00 0.00
11:56 pm 23:56 Clear 70 21 62 16.8 77 77 E 5 7 30.11 1020 10 16 0.00 0.00

Powered by AerisWeather